Flag for Nigeria Weather past 2 weeks in Enugu, Nigeria

Now
75 °F

Drizzle. Broken clouds.


Feels Like: 73 °F
Forecast: 73 / 85 °F
Wind: No wind

Location: Douala Obs.

Current Time: Jul 3, 2015 at 8:03:09 AM

Latest Report: Jul 3, 2015 at 7:00 AM


Visibility: 2 mi

Pressure: 29.95 "Hg

Humidity: 100%

Dew point: 75 °F

Location of EnuguLocation

Historic Weather in Enugu — Graph

°F

Enugu temperature yesterday

Maximum temperature yesterday: 81 °F (at 11:00 AM)
Minimum temperature yesterday: 75 °F (at 12:00 AM)
Average temperature yesterday: 77 °F

Past Weeks' High & Low Weather Summary

 TemperatureHumidityPressure
High84 °F (Jun 21, 2:00 PM)100% (Jun 18, 7:00 AM)30.09 "Hg (Jun 18, 7:00 AM)
Low75 °F (Jun 20, 6:00 AM)70% (Jun 29, 12:00 PM)29.83 "Hg (Jun 18, 7:00 AM)
Average78 °F91%29.96 "Hg
* Reported Jun 18 7:00 AM — Jul 3 7:00 AM, Enugu, Weather by CustomWeather, © 2015

Note: Actual official high and low records may vary slightly from our data, if they occured in-between our weather recording intervals... More about our weather records

Advertising

Enugu weather history for previous 24 hours

 ConditionsComfort  
Time TempWeatherWind HumidityBarometerVisibility
7:00 AM
Fri, Jul 3
75 °FDrizzle. Broken clouds.No wind100%29.95 "Hg2 mi
6:00 AM75 °FPartly cloudy.No wind100%29.92 "Hg2 mi
5:00 AM75 °FPartly cloudy.No wind94%29.92 "Hg2 mi
4:00 AM75 °FPartly cloudy.No wind94%29.92 "Hg2 mi
3:00 AM75 °FPartly cloudy.No wind94%29.95 "Hg3 mi
2:00 AM75 °FDrizzle. Mostly cloudy.No wind100%29.95 "Hg2 mi
1:00 AM75 °FDrizzle. Mostly cloudy.No wind94%29.98 "Hg2 mi
12:00 AM75 °FDrizzle. Mostly cloudy.No wind100%29.95 "Hg2 mi
11:00 PM
Thu, Jul 2
77 °FDrizzle. Mostly cloudy.No wind94%29.98 "Hg4 mi
10:00 PM77 °FPartly cloudy.No wind94%29.95 "HgN/A
9:00 PM77 °FPartly cloudy.No wind94%29.95 "HgN/A
8:00 PM77 °FPartly cloudy.No wind89%29.92 "HgN/A
7:00 PM77 °FMostly cloudy.3 mph89%29.89 "HgN/A
6:00 PM79 °FDrizzle. Cloudy.9 mph84%29.89 "Hg4 mi
5:00 PM79 °FPartly sunny.7 mph84%29.89 "HgN/A
4:00 PM79 °FLow clouds.7 mph89%29.89 "HgN/A
3:00 PM79 °FDrizzle. Partly sunny.9 mph89%29.89 "Hg5 mi
2:00 PM81 °FDrizzle. Partly sunny.8 mph79%29.92 "Hg5 mi
1:00 PM81 °FDrizzle. Partly sunny.6 mph84%29.92 "Hg5 mi
12:00 PM79 °FMore clouds than sun.No wind84%29.95 "HgN/A
11:00 AM81 °FMore clouds than sun.No wind84%29.95 "HgN/A
10:00 AM77 °FLight rain. More clouds than sun.No wind94%29.95 "Hg1 mi
9:00 AM77 °FLight rain. More clouds than sun.No wind94%29.95 "Hg1 mi
8:00 AM75 °FLight rain. More clouds than sun.No wind100%29.95 "Hg2 mi
Weather by CustomWeather, © 2015

See weather overviewHow to use our weather pages